ahlalhdeeth.com alexa rank chart, ahlalhdeeth.com alexa rank daily changes

ahlalhdeeth.com alexa rank chart, ahlalhdeeth.com alexa rank daily changes

ahlalhdeeth.com
Actual rank:
10 428

RANK HISTORY

Date Rank Diff
2018/06/23 10 428 -258
2018/06/22 10 686 -778
2018/06/21 11 464 -917
2018/06/20 12 381 +1 212
2018/06/19 11 169 +531
2018/06/18 10 638 -3 722
2018/06/17 14 360 +3 132
2018/06/16 11 228 +1 454
2018/06/15 9 774 +1 071
2018/06/14 8 703 -1 067
2018/06/13 9 770 +932
2018/06/12 8 838 +1 205
2018/06/11 7 633 -1 907
2018/06/10 9 540 -927
2018/06/09 10 467 +52
2018/06/08 10 415 +350
2018/06/07 10 065 -4 039
2018/06/06 14 104 +4 646
2018/06/05 9 458 +635
2018/06/04 8 823 -352
2018/06/03 9 175 -685
2018/06/02 9 860 -80
2018/06/01 9 940 -447
2018/05/31 10 387 +711
2018/05/30 9 676 -322
2018/05/29 9 998 +1 367
2018/05/28 8 631 -1 145
2018/05/27 9 776 -322
2018/05/26 10 098 +1 227
2018/05/25 8 871 -795
2018/05/24 9 666 +25
2018/05/23 9 641 +1 450
2018/05/22 8 191 -493
2018/05/21 8 684 +224
2018/05/20 8 460 -168
2018/05/19 8 628 -486
2018/05/18 9 114 -1 078
2018/05/17 10 192 -273
2018/05/16 10 465 +269
2018/05/15 10 196 +297
2018/05/14 9 899 -735
2018/05/13 10 634 +133
2018/05/12 10 501 -203
2018/05/11 10 704 -595
2018/05/10 11 299 +1 334
2018/05/09 9 965 -588
2018/05/08 10 553 -46
2018/05/07 10 599 +393
2018/05/06 10 206 -2 276
2018/05/05 12 482 +2 301
2018/05/04 10 181 +2 353
2018/05/03 7 828 -1 620
2018/05/02 9 448 -1 733
2018/05/01 11 181 +1 708
2018/04/30 9 473 +393
2018/04/29 9 080 -1 901
2018/04/28 10 981 +1 179
2018/04/27 9 802 -1 015
2018/04/26 10 817 +923
2018/04/25 9 894 +607
2018/04/24 9 287

WIDGET FOR YOUR SITE

DOMAINS WITH THE NEAREST RANK

Domain Rank
cont.ar 10 423
spaceforyou.cc 10 424
apornoflv.tv 10 425
iplocation.net 10 426
1news.az 10 427
ahlalhdeeth.com 10 428
mlssoccer.com 10 429
rtl.hr 10 430
avsforum.com 10 431
mp3-pn.com 10 432
epidemz.co 10 433

DOMAINS WITH THE NEAREST RANK BY TLD .com

Domain Rank
mylot.com 10 413
mr-jatt.com 10 415
oursogo.com 10 416
myflorida.com 10 418
caichongwang.com 10 421
ahlalhdeeth.com 10 428
mlssoccer.com 10 429
avsforum.com 10 431
mp3-pn.com 10 432
umggaming.com 10 439
95095.com 10 440